Regional Weather Roundup
Issued by NWS

Home | Current Version | Previous Version | Graphics & Text | Print | Product List | Glossary On
Versions: 1 2 3 4 5 6 7 8 9 10 11 12 13 14 15 16 17 18 19 20 21 22 23 24 25 26 27 28 29 30 31 32 33 34 35 36 37 38 39 40 41 42 43 44 45 46 47 48 49 50
000
ASUS43 KDMX 232106
RWRIA

WEATHER ROUNDUP FOR IOWA
NATIONAL WEATHER SERVICE DES MOINES IA
400 PM CDT SUN APR 23 2017

NOTE: "FAIR" INDICATES FEW OR NO CLOUDS BELOW 12,000 FEET WITH NO
SIGNIFICANT WEATHER AND/OR OBSTRUCTIONS TO VISIBILITY.

* - THESE STATIONS ARE NOT NWS STATIONS...THUS NOT UNDER NWS
QUALITY CONTROL.  THEY ALSO DO NOT REPORT WEATHER SUCH
AS PRECIPITATION OR FOG.

IAZ001>003-012>014-020>022-031>034-043>046-232200-
   NORTHWEST IOWA

CITY           SKY/WX    TMP DP  RH WIND       PRES   REMARKS
CARROLL *      MOSUNNY   73  25  16 S18       29.98F
CHEROKEE *     PTSUNNY   68  33  27 SW18G25   29.96F
DENISON *      CLOUDY    70  28  21 SW18G29   29.99F
LE MARS *      MOSUNNY   72  30  21 S24G31    29.93F
ORANGE CITY *  MOSUNNY   70  36  28 SW18G25   29.93F
SHELDON *      CLOUDY    70  28  21 SW20G26   29.92F
SIOUX CITY     MOSUNNY   74  28  18 SW18G32   29.95F
SPENCER        CLOUDY    71  24  17 MISG      29.96F
STORM LAKE *   SUNNY     70  25  18 S18G31    29.97F
$$

IAZ055>058-069>071-079>083-090>094-232200-
   SOUTHWEST IOWA

CITY           SKY/WX    TMP DP  RH WIND       PRES   REMARKS
ATLANTIC *     MOSUNNY   70  30  23 S13G24    30.00F
AUDUBON *      MOSUNNY   70  18  13 SW12G20   30.01F
CLARINDA *     SUNNY     70  30  23 S16       30.05F
COUNCIL BLFS * MOSUNNY   70  30  23 S20G26    29.99F
CRESTON *      SUNNY     68  34  28 S14       30.03F
HARLAN  *      CLOUDY    70  27  19 S20       30.02F
LAMONI         SUNNY     70  31  23 S10G18    30.04F
RED OAK *      SUNNY     72  28  20 S17G23    30.02F
SHENANDOAH *   SUNNY     72  28  20 S13G21    30.03F
$$

IAZ047>049-059>061-072>074-084-232200-
   CENTRAL IOWA

CITY           SKY/WX    TMP DP  RH WIND       PRES   REMARKS
AMES           SUNNY     71  34  25 S16       30.00F
ANKENY *       SUNNY     72  32  23 S13G20    30.02F
BOONE *        SUNNY     73  27  17 S13G22    29.99F
CHARITON *     SUNNY     70  34  26 S13       30.03F
DES MOINES     PTSUNNY   73  33  23 S13G23    30.01F
GRINNELL*      MOSUNNY   71  21  15 SW12G17   30.04F
KNOXVILLE *    SUNNY     70  28  21 S13       30.02F
MARSHALLTOWN   SUNNY     71  33  24 S15       30.00F
NEWTON *       MOSUNNY   70  30  23 S14       30.01F
PELLA *        SUNNY     72  28  20 S10       30.04F
PERRY *          N/A     72  19  13 SW16      30.01F
$$

IAZ004>006-015-016-023>025-035-036-232200-
   NORTH CENTRAL IOWA

CITY           SKY/WX    TMP DP  RH WIND       PRES   REMARKS
ALGONA *       SUNNY     72  28  20 SW20G26   29.97F
CLARION *      PTSUNNY   73  27  17 SW14G24   29.99F
ESTHERVILLE    SUNNY     70  30  22 SW18G25   29.95F
FORT DODGE *   SUNNY     72  32  23 SW13G22   30.00F
MASON CITY     MOSUNNY   71  27  19 SW17G23   29.99F
FOREST CITY *    N/A     72  28  20 SW17G23   29.98F
WEBSTER CITY * MOSUNNY   73  25  16 SW17G24   29.97F
IOWA FALLS *     N/A     73  30  21 S15       30.01F
$$

IAZ007>011-017>019-026>030-037>042-050>054-066-232200-
   NORTHEAST IOWA

CITY           SKY/WX    TMP DP  RH WIND       PRES   REMARKS
CEDAR RAPIDS   SUNNY     71  32  23 VRB3      30.02F
CHARLES CITY * SUNNY     72  27  18 SW15      30.00F
DECORAH *      SUNNY     70  30  23 VRB7G18   29.99F
DUBUQUE        SUNNY     69  31  24 SW6       30.02F
MONTICELLO *   SUNNY     72  28  20 VRB5G13   30.02F
OELWEIN *      SUNNY     70  30  23 W8G16     30.01F
WATERLOO       SUNNY     72  30  21 VRB7G18   29.99F
$$

IAZ064-065-067-068-078-232200-
   EAST CENTRAL IOWA

CITY           SKY/WX    TMP DP  RH WIND       PRES   REMARKS
DAVENPORT      SUNNY     72  28  19 NW6       30.04F
IOWA CITY      SUNNY     72  34  24 VRB5      30.04F
MT. PLEASANT * SUNNY     72  27  19 S3        30.04F
MUSCATINE *    SUNNY     73  28  19 CALM      30.04F
QUAD CITIES    SUNNY     71  30  21 VRB3      30.03F
$$

IAZ062-063-075>077-085>089-095>099-232200-
   SOUTHEAST IOWA

CITY           SKY/WX    TMP DP  RH WIND       PRES   REMARKS
BURLINGTON     SUNNY     70  27  20 VRB3      30.04F
FAIRFIELD *    SUNNY     70  23  17 CALM      30.04F
FORT MADISON * SUNNY     75  34  22 E3        30.05F
KEOKUK *       SUNNY     70  30  23 N5        30.04F
OSKALOOSA *      N/A     72  25  17 S10       30.04F
CENTERVILLE *    N/A     72  30  21 CALM      30.06F
OTTUMWA        SUNNY     71  32  23 VRB6      30.04F
WASHINGTON *   SUNNY     72  30  21 CALM      30.05F
$$

ABBREVIATIONS USED IN REMARKS
   TC - TEMPERATURES IN CELSIUS
  WCI - WIND CHILL INDEX
   HX - HEAT INDEX
  VSB - VISIBILITY
$$





USA.gov is the U.S. government's official web portal to all federal, state and local government web resources and services.